When you browse on this site, cookies collect data to enhance your experience and personalize the content and advertising you see.
Visit our Privacy Policy to learn more. By continuing to use the site, you agree to this use of cookies and data.
  • In Belgium
  • List of Countries
  • For 7 days
  • Water Temperature
  • Weather Map
  • Weather Widgets
  • user-avatar
    Login

    Hourly Weather Korechkino

    Today, 4 June, Thursday

    Time Temperature Precipitation Wind Pressure Humidity
    00:00 +12°C° 0.1 mm 3 mps 744 mmHg 94%
    01:00 +12°C° 0.1 mm 3 mps 744 mmHg 94%
    02:00 +12°C° 0.1 mm 3 mps 743 mmHg 94%
    03:00 +12°C° 1.8 mm 4 mps 743 mmHg 95%
    04:00 +11°C° 1.8 mm 4 mps 742 mmHg 96%
    05:00 +10°C° 1.8 mm 5 mps 741 mmHg 96%
    06:00 +10°C° 2.7 mm 5 mps 740 mmHg 96%
    07:00 +10°C° 2.7 mm 5 mps 740 mmHg 97%
    08:00 +10°C° 2.7 mm 5 mps 739 mmHg 97%
    09:00 +12°C° 0.5 mm 5 mps 739 mmHg 96%
    10:00 +13°C° 0.5 mm 4 mps 738 mmHg 96%
    11:00 +14°C° 0.5 mm 4 mps 738 mmHg 96%
    12:00 +14°C° 0.4 mm 4 mps 738 mmHg 96%
    13:00 +14°C° 0.4 mm 4 mps 738 mmHg 96%
    14:00 +14°C° 0.4 mm 3 mps 738 mmHg 95%
    15:00 +16°C° 0.2 mm 3 mps 738 mmHg 93%
    16:00 +16°C° 0.2 mm 3 mps 738 mmHg 91%
    17:00 +17°C° 0.2 mm 3 mps 738 mmHg 88%
    18:00 +16°C° 0.1 mm 2 mps 738 mmHg 91%
    19:00 +15°C° 0.1 mm 2 mps 738 mmHg 93%
    20:00 +15°C° 0.1 mm 2 mps 738 mmHg 95%
    21:00 +14°C° 0.4 mm 2 mps 739 mmHg 96%
    22:00 +13°C° 0.4 mm 2 mps 739 mmHg 96%
    23:00 +13°C° 0.4 mm 2 mps 739 mmHg 97%

    Tomorrow, 5 June, Friday

    Time Temperature Precipitation Wind Pressure Humidity
    00:00 +12°C° 0.1 mm 2 mps 739 mmHg 97%
    01:00 +12°C° 0.1 mm 2 mps 739 mmHg 97%
    02:00 +10°C° 0.1 mm 2 mps 740 mmHg 97%
    03:00 +12°C° 0.3 mm 2 mps 740 mmHg 97%
    04:00 +12°C° 0.3 mm 2 mps 740 mmHg 96%
    05:00 +12°C° 0.3 mm 2 mps 740 mmHg 96%
    06:00 +13°C° 0.1 mm 3 mps 740 mmHg 92%
    07:00 +14°C° 0.1 mm 3 mps 741 mmHg 87%
    08:00 +16°C° 0.1 mm 3 mps 741 mmHg 83%
    09:00 +17°C° 0.4 mm 3 mps 741 mmHg 78%
    10:00 +18°C° 0.4 mm 4 mps 742 mmHg 73%
    11:00 +19°C° 0.4 mm 4 mps 742 mmHg 69%
    12:00 +19°C° 0.1 mm 4 mps 742 mmHg 62%
    13:00 +20°C° 0.1 mm 4 mps 742 mmHg 55%
    14:00 +21°C° 0.1 mm 4 mps 742 mmHg 49%
    15:00 +20°C° 0.1 mm 3 mps 742 mmHg 54%
    16:00 +20°C° 0.1 mm 3 mps 742 mmHg 60%
    17:00 +19°C° 0.1 mm 3 mps 742 mmHg 66%
    18:00 +18°C° 0 mm 3 mps 743 mmHg 73%
    19:00 +16°C° 0 mm 2 mps 743 mmHg 80%
    20:00 +15°C° 0 mm 2 mps 743 mmHg 88%
    21:00 +14°C° 0 mm 2 mps 743 mmHg 91%
    22:00 +13°C° 0 mm 2 mps 743 mmHg 94%
    23:00 +12°C° 0 mm 2 mps 744 mmHg 97%

    Day after tomorrow, 6 June, Saturday

    Time Temperature Precipitation Wind Pressure Humidity
    00:00 +10°C° 0 mm 2 mps 744 mmHg 97%
    01:00 +10°C° 0 mm 2 mps 744 mmHg 97%
    02:00 +10°C° 0 mm 2 mps 745 mmHg 97%
    03:00 +10°C° 0 mm 2 mps 745 mmHg 96%
    04:00 +12°C° 0 mm 2 mps 745 mmHg 95%
    05:00 +11°C° 0 mm 3 mps 745 mmHg 94%
    06:00 +13°C° 0 mm 3 mps 745 mmHg 87%
    07:00 +14°C° 0 mm 3 mps 745 mmHg 80%
    08:00 +17°C° 0 mm 3 mps 745 mmHg 74%
    09:00 +18°C° 0 mm 4 mps 745 mmHg 68%
    10:00 +20°C° 0 mm 4 mps 745 mmHg 62%
    11:00 +21°C° 0 mm 4 mps 745 mmHg 56%
    12:00 +22°C° 0 mm 4 mps 745 mmHg 57%
    13:00 +22°C° 0 mm 4 mps 745 mmHg 59%
    14:00 +22°C° 0 mm 4 mps 745 mmHg 60%
    15:00 +22°C° 0.1 mm 4 mps 745 mmHg 65%
    16:00 +21°C° 0.1 mm 4 mps 744 mmHg 71%
    17:00 +21°C° 0.1 mm 4 mps 744 mmHg 76%
    18:00 +20°C° 1.1 mm 3 mps 744 mmHg 82%
    19:00 +19°C° 1.1 mm 3 mps 744 mmHg 89%
    20:00 +17°C° 1.1 mm 3 mps 744 mmHg 96%
    21:00 +17°C° 0 mm 3 mps 745 mmHg 96%
    22:00 +17°C° 0 mm 3 mps 745 mmHg 97%
    23:00 +16°C° 0 mm 3 mps 745 mmHg 97%

    7 June, Sunday

    Time Temperature Precipitation Wind Pressure Humidity
    00:00 +16°C° 0 mm 2 mps 746 mmHg 98%
    01:00 +15°C° 0 mm 2 mps 746 mmHg 98%
    02:00 +15°C° 0 mm 2 mps 746 mmHg 98%
    03:00 +15°C° 0 mm 2 mps 747 mmHg 98%
    04:00 +16°C° 0 mm 1 mps 747 mmHg 97%
    05:00 +16°C° 0 mm 1 mps 747 mmHg 96%
    06:00 +19°C° 0 mm 1 mps 748 mmHg 87%
    07:00 +20°C° 0 mm 1 mps 748 mmHg 78%
    08:00 +22°C° 0 mm 1 mps 749 mmHg 69%
    09:00 +23°C° 0 mm 2 mps 749 mmHg 63%
    10:00 +24°C° 0 mm 2 mps 749 mmHg 58%
    11:00 +25°C° 0 mm 3 mps 750 mmHg 52%
    12:00 +26°C° 0 mm 3 mps 750 mmHg 51%
    13:00 +26°C° 0 mm 3 mps 750 mmHg 49%
    14:00 +27°C° 0 mm 3 mps 750 mmHg 48%
    15:00 +26°C° 0 mm 2 mps 750 mmHg 50%
    16:00 +26°C° 0 mm 2 mps 750 mmHg 53%
    17:00 +26°C° 0 mm 2 mps 750 mmHg 55%
    18:00 +24°C° 0 mm 1 mps 750 mmHg 63%
    19:00 +22°C° 0 mm 1 mps 750 mmHg 71%
    20:00 +20°C° 0 mm 1 mps 750 mmHg 79%
    21:00 +17°C° 0 mm 0 mps 751 mmHg 82%
    22:00 +16°C° 0 mm 0 mps 751 mmHg 85%
    23:00 +15°C° 0 mm 0 mps 751 mmHg 88%

    8 June, Monday

    Time Temperature Precipitation Wind Pressure Humidity
    00:00 +16°C° 0 mm 1 mps 751 mmHg 89%
    01:00 +16°C° 0 mm 1 mps 751 mmHg 89%
    02:00 +16°C° 0 mm 1 mps 751 mmHg 90%
    03:00 +16°C° 0 mm 1 mps 751 mmHg 88%
    04:00 +18°C° 0 mm 1 mps 751 mmHg 85%
    05:00 +18°C° 0 mm 2 mps 750 mmHg 83%
    06:00 +19°C° 0 mm 2 mps 750 mmHg 78%
    07:00 +21°C° 0 mm 2 mps 750 mmHg 74%
    08:00 +24°C° 0 mm 3 mps 750 mmHg 70%
    09:00 +25°C° 0.1 mm 3 mps 750 mmHg 65%
    10:00 +26°C° 0.1 mm 3 mps 750 mmHg 61%
    11:00 +28°C° 0.1 mm 3 mps 750 mmHg 57%
    12:00 +28°C° 0.5 mm 3 mps 750 mmHg 60%
    13:00 +28°C° 0.5 mm 2 mps 750 mmHg 63%
    14:00 +28°C° 0.5 mm 2 mps 750 mmHg 66%
    15:00 +28°C° 0.2 mm 2 mps 750 mmHg 65%
    16:00 +28°C° 0.2 mm 2 mps 750 mmHg 64%
    17:00 +28°C° 0.2 mm 1 mps 750 mmHg 64%
    18:00 +26°C° 0.2 mm 1 mps 750 mmHg 71%
    19:00 +24°C° 0.2 mm 1 mps 750 mmHg 78%
    20:00 +22°C° 0.2 mm 1 mps 750 mmHg 85%
    21:00 +21°C° 0 mm 1 mps 750 mmHg 88%
    22:00 +20°C° 0 mm 1 mps 750 mmHg 90%
    23:00 +18°C° 0 mm 2 mps 750 mmHg 93%

    9 June, Tuesday

    Time Temperature Precipitation Wind Pressure Humidity
    00:00 +19°C° 0 mm 1 mps 750 mmHg 94%
    01:00 +19°C° 0 mm 1 mps 750 mmHg 94%
    02:00 +18°C° 0 mm 1 mps 750 mmHg 95%
    03:00 +19°C° 0 mm 1 mps 751 mmHg 94%
    04:00 +20°C° 0 mm 1 mps 751 mmHg 93%
    05:00 +19°C° 0 mm 2 mps 751 mmHg 91%
    06:00 +21°C° 0.1 mm 2 mps 751 mmHg 86%
    07:00 +24°C° 0.1 mm 2 mps 751 mmHg 80%
    08:00 +25°C° 0.1 mm 2 mps 751 mmHg 74%
    09:00 +27°C° 0.4 mm 3 mps 751 mmHg 68%
    10:00 +28°C° 0.4 mm 3 mps 751 mmHg 62%
    11:00 +29°C° 0.4 mm 3 mps 751 mmHg 56%
    12:00 +29°C° 0.4 mm 3 mps 751 mmHg 56%
    13:00 +29°C° 0.4 mm 3 mps 751 mmHg 57%
    14:00 +30°C° 0.4 mm 3 mps 750 mmHg 57%
    15:00 +29°C° 0.6 mm 3 mps 750 mmHg 61%
    16:00 +28°C° 0.6 mm 3 mps 750 mmHg 65%
    17:00 +28°C° 0.6 mm 2 mps 750 mmHg 70%
    18:00 +26°C° 0.2 mm 2 mps 750 mmHg 75%
    19:00 +25°C° 0.2 mm 2 mps 750 mmHg 81%
    20:00 +23°C° 0.2 mm 2 mps 750 mmHg 87%
    21:00 +23°C° 0 mm 2 mps 750 mmHg 89%
    22:00 +21°C° 0 mm 2 mps 751 mmHg 91%
    23:00 +20°C° 0 mm 2 mps 751 mmHg 93%
    Show more